Location: Narrabri
(30.3170°S, 149.7830°E)
Time: 16:57:06
(UTC+10:00)

N. Korean satellite - Visible Passes

Search period start: 25 June 2017 00:00
Search period end: 05 July 2017 00:00
Orbit: 461 x 518 km, 97.2° (Epoch: 24 June)

Date Brightness Start Highest point End Pass type
(mag) Time Alt. Az. Time Alt. Az. Time Alt. Az.
25 Jun 6.5 06:26:12 10° N 06:29:42 76° W 06:33:20 10° SSW visible
25 Jun 8.5 18:02:41 15° E 18:02:50 15° E 18:05:00 10° NE visible
25 Jun 9.0 19:37:08 24° W 19:37:08 24° W 19:39:31 10° NW visible
26 Jun 7.7 06:03:28 10° NNE 06:06:52 46° ESE 06:10:22 10° S visible
26 Jun 7.5 19:13:58 50° WNW 19:13:58 50° WNW 19:17:15 10° NNW visible
27 Jun 9.0 05:41:18 10° NE 05:44:05 22° ESE 05:46:57 10° SSE visible
27 Jun 6.6 18:50:48 68° ENE 18:50:48 68° ENE 18:54:28 10° N visible
28 Jun 9.8 05:20:21 10° E 05:21:24 11° ESE 05:22:26 10° SE visible
28 Jun 7.4 18:27:37 31° E 18:27:47 31° E 18:31:10 10° NNE visible
28 Jun 10.0 20:02:05 11° W 20:02:05 11° W 20:02:35 10° W visible
29 Jun 6.5 06:28:04 10° N 06:31:37 70° W 06:35:17 10° SSW visible
29 Jun 8.4 18:04:28 16° E 18:04:47 16° E 18:07:07 10° NE visible
29 Jun 9.0 19:38:55 23° W 19:38:55 23° W 19:41:21 10° NW visible
30 Jun 7.5 06:05:18 10° NNE 06:08:45 50° ESE 06:12:20 10° S visible
30 Jun 7.6 19:15:44 48° W 19:15:44 48° W 19:19:08 10° NNW visible
01 Jul 8.9 05:43:03 10° NE 05:45:58 24° ESE 05:48:58 10° SSE visible
01 Jul 6.5 18:52:33 74° E 18:52:38 75° ENE 18:56:23 10° N visible
02 Jul 9.7 05:21:48 10° E 05:23:16 12° ESE 05:24:44 10° SE visible
02 Jul 7.3 18:29:22 33° E 18:29:42 33° E 18:33:07 10° NNE visible
02 Jul 10.0 20:03:49 11° W 20:03:49 11° W 20:04:10 10° W visible
03 Jul 6.6 06:29:56 10° N 06:33:29 65° W 06:37:11 10° SSW visible
03 Jul 8.3 18:06:11 16° E 18:06:42 17° E 18:09:10 10° NE visible
03 Jul 9.1 19:40:39 22° W 19:40:39 22° W 19:43:07 10° NW visible
04 Jul 7.4 06:07:06 10° NNE 06:10:37 55° ESE 06:14:16 10° S visible
04 Jul 7.7 19:17:27 45° W 19:17:27 45° W 19:20:57 10° NNW visible
